Wind_Speed
12 12 12 12 13 12 11 11 12 12 11 11 11 10 9 8 7 7 6 6 6 6 6 6 6 6 7 7 6 6 7 8 8 7 7 7 7 6 6 5 5 4 4 4 2 2 2 2 3
12 12 12 13 14 12 11 11 11 11 11 11 11 10 10 8 8 7 6 6 6 6 6 6 6 6 6 7 7 7 7 8 8 7 7 7 6 6 6 5 4 4 3 3 2 2 2 3 3
12 12 12 13 12 11 10 10 11 11 11 11 11 10 10 9 8 8 7 6 6 7 6 6 6 6 6 7 8 8 8 7 7 6 6 6 6 5 5 5 4 3 2 2 1 1 2 3 3
12 12 12 12 11 10 10 11 11 11 12 12 11 10 10 10 9 8 8 7 7 7 7 7 7 7 7 7 8 8 8 7 6 6 5 5 5 5 5 4 3 2 1 0 1 1 1 2 2
11 11 12 11 10 10 11 11 11 12 12 12 12 11 10 9 9 9 8 8 8 7 7 7 7 7 7 7 8 7 7 6 6 5 4 5 4 4 4 3 2 2 1 1 1 2 2 3 3
12 11 11 11 11 11 11 11 12 11 11 11 12 11 10 10 9 9 9 9 9 8 8 7 7 7 7 7 7 7 7 6 5 4 3 3 3 3 4 2 2 2 2 2 2 2 3 4 3
11 12 11 10 11 11 11 11 11 11 11 11 11 11 10 11 10 9 8 9 9 8 7 8 7 6 7 7 7 7 6 5 4 4 4 3 3 3 2 2 2 2 2 2 2 3 3 2 1
11 12 12 11 11 11 11 11 10 11 11 10 10 11 10 10 10 9 8 8 8 7 7 7 7 6 6 6 6 6 5 4 3 4 4 3 2 2 2 1 1 2 2 3 3 4 2 3 2
10 12 11 11 11 11 11 11 11 11 11 10 10 10 10 10 9 9 8 8 8 7 7 7 7 7 7 6 5 5 4 3 3 3 3 4 2 1 1 1 2 2 2 2 3 3 3 3 4
11 11 11 11 11 11 12 12 12 11 11 10 10 10 10 10 9 8 8 8 8 7 7 7 7 7 7 6 5 4 3 3 4 3 3 4 3 2 1 0 2 2 3 3 3 4 4 4 4
10 10 10 10 11 11 12 12 12 11 11 11 11 10 10 10 9 8 8 7 7 7 6 6 6 6 6 6 5 4 4 4 4 3 3 3 3 2 1 1 2 2 3 3 4 4 4 4 4
8 8 8 9 9 10 11 11 11 11 11 10 10 10 10 10 10 8 8 7 6 6 6 6 6 5 6 6 5 5 4 4 5 4 3 3 3 2 2 1 1 2 3 3 4 4 4 4 4
6 6 6 7 7 8 9 9 10 9 10 10 9 9 9 10 10 9 8 8 7 6 6 6 5 5 5 5 5 5 4 4 4 4 4 4 4 3 2 2 2 3 4 4 3 2 2 3 4
5 6 6 6 6 7 8 8 9 9 9 9 10 9 9 9 10 10 9 8 7 7 6 6 5 4 4 4 5 5 5 4 4 3 4 4 3 4 4 4 4 4 4 5 4 3 3 4 4
3 5 5 5 5 6 7 7 7 8 8 9 9 9 9 9 9 9 8 8 7 7 6 5 5 5 4 4 4 4 4 3 3 3 3 3 3 3 4 5 5 5 5 5 4 4 4 4 4
2 3 3 2 3 4 5 6 6 6 7 7 8 8 8 8 8 8 8 7 7 6 6 5 5 4 4 4 3 2 2 2 2 2 3 3 3 4 4 5 5 5 5 5 4 4 4 4 4
2 2 1 1 1 2 3 3 4 4 5 6 6 6 7 7 7 8 7 7 7 7 6 5 5 4 4 4 3 2 2 2 2 2 2 2 3 4 4 5 5 5 5 5 4 5 5 5 5
5 4 3 3 2 2 2 2 3 3 3 4 5 6 5 5 6 6 6 7 6 6 5 5 5 4 4 3 2 2 2 2 2 3 3 3 3 3 4 5 6 6 6 5 5 6 5 5 5
7 5 5 5 4 3 2 2 3 3 3 3 3 4 4 4 5 5 5 6 5 5 4 4 4 4 4 3 3 3 3 3 3 4 5 5 4 4 4 6 6 6 6 6 6 7 6 6 6
7 6 6 7 6 4 4 3 3 3 2 2 2 3 3 3 4 4 4 5 5 5 4 3 4 4 3 3 3 3 4 4 4 5 6 6 6 6 6 6 6 6 6 6 6 7 7 7 8
8 8 8 8 7 6 4 4 4 3 3 3 3 3 3 3 4 4 4 5 5 5 4 3 3 4 4 4 4 4 4 5 5 6 6 6 6 6 6 6 6 7 7 6 7 8 9 9 10
9 10 9 9 7 7 6 4 5 4 4 4 4 4 4 5 5 5 5 5 5 5 4 4 3 4 4 4 4 5 5 5 5 5 5 5 5 6 6 7 7 8 8 8 8 9 10 11 11
10 10 10 9 8 8 7 6 6 6 6 5 5 6 6 6 6 6 6 6 6 6 6 5 5 5 5 5 6 6 5 5 5 6 6 6 6 6 7 8 9 9 9 10 10 11 11 12 12
11 10 10 9 9 9 9 8 8 7 7 7 7 7 7 7 7 7 7 7 7 7 7 6 6 5 5 6 6 6 7 6 6 7 7 7 7 8 9 9 10 10 11 11 11 12 12 13 13
12 10 10 11 11 11 12 10 11 9 8 8 8 8 8 7 8 8 8 8 8 8 8 7 7 7 7 7 7 8 8 8 8 8 9 9 9 9 10 10 11 11 12 12 13 13 13 14 14
13 12 12 11 11 12 14 13 12 10 10 9 9 9 9 9 9 9 9 9 9 9 9 8 8 8 9 9 9 9 10 10 10 10 10 10 11 11 11 11 12 12 13 14 13 13 14 13 14
14 14 13 12 12 12 14 14 13 12 11 11 11 10 10 10 10 10 10 10 10 10 10 10 10 10 10 10 11 11 11 11 11 12 11 11 12 12 12 13 13 14 14 14 14 15 15 14 15
16 15 14 13 13 13 13 14 13 13 12 11 11 11 11 11 11 11 12 12 12 11 12 11 11 11 12 13 13 12 13 13 13 13 12 12 13 13 13 14 15 16 16 16 16 16 16 16 15
17 17 16 14 14 13 13 14 15 14 14 13 12 13 13 12 12 12 13 13 13 13 12 12 13 14 14 14 14 14 14 14 14 14 14 14 14 14 15 16 17 18 18 18 18 17 17 17 17
18 17 16 16 16 16 14 15 15 15 14 14 14 14 14 14 13 13 13 13 13 13 13 13 14 15 16 15 15 15 15 15 15 15 15 15 15 15 17 17 19 19 19 19 19 18 18 18 19
Wind_Direction
82 82 83 82 79 77 75 75 75 73 73 75 71 71 75 80 84 86 88 86 88 88 90 97 105 109 114 114 122 136 149 153 152 153 155 153 150 140 136 140 138 138 151 156 146 145 137 141 151
84 83 83 82 79 78 76 77 75 72 69 70 68 68 70 75 81 87 90 94 97 95 95 99 108 107 109 110 118 128 142 147 150 152 153 154 150 141 140 148 143 145 151 159 152 158 188 183 178
86 83 82 81 77 76 77 76 75 70 67 66 64 67 70 74 79 85 89 96 101 100 98 103 106 108 108 111 118 123 132 138 140 146 153 158 155 155 153 152 151 151 140 137 136 175 214 226 225
88 84 81 78 75 77 78 75 74 70 67 65 65 68 69 73 77 81 87 93 100 101 99 103 107 110 112 111 115 124 130 132 132 133 144 150 148 161 163 159 160 149 149 206 212 247 259 256 258
86 82 78 76 75 77 76 76 75 73 70 66 67 70 69 71 73 76 87 92 98 98 96 100 109 110 112 109 116 118 120 120 127 131 138 149 156 170 180 171 173 182 213 258 274 275 294 284 265
82 82 82 83 80 78 77 76 76 74 69 67 67 68 67 71 73 77 85 89 93 97 96 99 107 111 115 112 112 114 113 115 121 119 123 148 160 177 178 171 184 212 243 291 310 310 318 296 257
85 84 83 85 80 77 74 74 74 70 67 66 67 67 65 70 74 78 82 87 90 94 98 100 105 110 113 117 116 114 110 107 108 115 117 120 122 153 159 177 194 228 259 290 303 309 308 312 259
86 83 83 84 80 77 74 74 74 71 66 67 65 64 66 69 72 77 82 86 88 93 100 105 108 108 116 117 115 111 105 106 101 111 112 110 123 141 152 172 227 256 278 293 308 314 277 266 270
89 87 87 86 81 76 75 75 72 71 67 68 65 63 64 65 68 74 81 86 90 93 98 105 108 105 105 112 112 106 99 97 91 99 101 94 107 131 167 191 250 275 289 291 299 301 264 258 286
92 94 89 85 80 77 74 71 69 66 66 66 64 63 63 62 64 69 79 86 89 90 96 104 106 103 101 104 104 104 104 102 92 91 96 86 88 87 77 258 264 275 289 280 286 288 273 286 286
96 98 91 83 78 75 70 67 64 62 65 64 61 60 60 60 60 66 75 84 87 86 92 94 104 105 104 106 101 94 98 102 99 92 86 83 79 71 36 338 302 299 293 286 286 288 272 279 287
101 97 90 83 75 70 67 65 60 57 62 64 63 61 61 60 59 63 73 82 86 84 84 94 102 105 101 103 101 90 87 93 93 89 77 64 57 53 36 10 326 329 328 308 287 288 279 288 287
102 94 89 81 71 68 68 64 58 56 60 59 59 62 60 59 62 65 71 78 82 82 86 86 94 104 102 101 100 94 88 85 86 82 71 56 47 42 24 5 346 334 332 333 338 320 306 314 301
106 95 88 78 70 68 68 65 60 59 60 58 59 63 64 60 63 66 68 71 74 78 80 77 77 85 98 94 92 85 81 80 75 72 70 57 45 35 23 9 4 356 352 355 347 339 320 318 312
112 95 80 70 64 67 66 57 54 54 59 59 59 63 64 63 62 63 65 63 67 73 75 75 76 79 84 82 82 84 78 74 69 60 43 37 36 27 15 10 3 356 348 352 352 343 323 315 311
147 100 74 53 49 54 63 54 44 45 50 49 51 57 61 63 63 61 60 59 61 71 70 69 77 75 77 78 80 79 66 58 55 44 18 20 19 14 14 5 355 349 346 342 334 333 319 305 308
192 182 214 303 6 26 48 49 31 31 36 37 39 45 55 60 60 57 55 56 58 59 60 61 64 64 65 67 74 63 40 27 17 4 352 4 0 359 358 350 345 340 338 333 319 321 324 316 307
222 222 236 261 284 322 346 7 359 360 10 22 36 42 45 49 56 53 49 50 49 50 54 54 53 53 53 53 58 42 25 14 359 344 341 345 340 340 343 342 338 335 335 332 324 319 319 315 307
223 223 247 261 265 281 297 317 327 329 343 0 13 20 28 35 41 41 40 36 35 35 39 47 44 40 38 40 33 23 9 360 352 340 337 336 332 330 329 333 335 334 329 322 321 322 317 315 307
225 231 252 263 262 270 277 299 310 317 318 334 337 347 3 10 17 17 15 14 13 12 16 35 27 15 11 12 5 359 353 344 338 334 334 330 325 326 322 323 326 321 317 319 317 315 315 314 313
234 242 249 257 263 269 274 292 289 292 288 294 301 305 313 325 334 347 348 346 347 350 354 2 352 352 354 352 351 350 342 335 330 331 331 328 327 329 328 326 327 324 321 316 312 310 310 311 309
241 247 251 256 262 269 267 270 277 276 277 278 281 287 292 296 302 315 325 330 329 329 327 336 331 333 336 339 341 339 335 330 326 326 325 329 334 331 326 324 321 320 315 312 310 311 310 308 306
238 248 254 257 261 265 268 263 265 273 271 266 268 277 284 287 290 297 308 312 316 320 321 322 320 318 320 318 320 323 322 321 327 331 327 324 326 324 323 320 319 319 318 315 311 312 310 310 307
244 252 259 264 265 264 262 261 259 267 270 263 264 271 276 280 284 292 301 305 304 313 316 316 315 310 308 311 312 311 310 311 316 318 322 321 316 314 315 317 317 316 317 315 313 312 309 306 305
245 249 256 262 262 263 266 265 260 266 269 266 267 269 272 277 281 286 294 299 302 308 310 308 307 305 304 304 304 301 300 301 304 305 309 315 315 311 310 314 315 313 313 311 311 312 309 308 304
244 243 247 254 258 266 271 268 266 268 269 269 267 269 270 276 280 282 287 292 297 303 304 303 299 299 299 299 299 297 297 297 299 302 304 308 313 313 309 311 314 312 312 311 309 309 308 306 305
242 244 246 251 257 260 264 267 270 271 270 270 267 267 271 274 277 280 283 288 292 295 296 297 297 296 297 296 296 296 296 295 296 298 299 304 308 310 309 309 310 310 310 310 306 306 305 304 305
242 247 249 247 256 259 267 271 273 271 268 267 263 261 266 273 276 279 281 285 288 291 294 293 296 295 295 294 295 295 294 293 295 298 298 302 305 308 307 306 306 307 307 305 303 303 302 303 301
245 247 250 252 253 255 263 269 272 273 267 263 260 261 264 269 273 277 279 281 283 288 291 292 293 294 293 293 294 294 292 291 294 298 297 299 300 302 304 302 303 304 303 302 301 300 301 301 299
245 248 251 253 257 258 260 266 272 271 268 264 262 262 264 266 270 275 276 278 279 283 287 291 293 294 294 292 291 292 294 292 291 295 297 297 296 298 301 299 299 300 301 301 299 299 297 298 297
Height
5903 5902 5902 5902 5902 5903 5901 5900 5899 5897 5896 5895 5894 5893 5892 5891 5892 5893 5890 5888 5888 5887 5886 5885 5885 5884 5883 5881 5879 5878 5878 5880 5883 5885 5887 5888 5889 5890 5890 5890 5891 5891 5891 5892 5892 5892 5892 5892 5892
5904 5904 5905 5905 5905 5904 5903 5901 5900 5898 5897 5896 5894 5893 5893 5892 5891 5891 5889 5889 5888 5888 5887 5886 5886 5885 5884 5882 5880 5879 5880 5882 5884 5886 5887 5888 5889 5890 5890 5891 5891 5891 5891 5892 5892 5892 5892 5892 5892
5906 5906 5907 5907 5906 5906 5904 5903 5901 5899 5898 5897 5896 5894 5894 5893 5892 5891 5890 5890 5889 5888 5888 5888 5887 5887 5886 5885 5883 5882 5882 5884 5886 5887 5888 5888 5889 5890 5890 5891 5891 5891 5892 5892 5892 5892 5892 5891 5892
5908 5909 5909 5909 5908 5907 5905 5904 5902 5900 5899 5898 5897 5895 5894 5894 5893 5892 5891 5891 5890 5890 5889 5889 5889 5888 5888 5887 5886 5885 5885 5886 5887 5888 5888 5889 5889 5890 5890 5891 5891 5891 5892 5892 5892 5892 5891 5891 5891
5910 5910 5911 5911 5909 5908 5906 5905 5903 5902 5901 5899 5898 5896 5895 5895 5894 5893 5892 5892 5891 5891 5890 5890 5890 5890 5889 5889 5888 5888 5888 5888 5888 5888 5889 5889 5889 5890 5890 5891 5891 5891 5892 5892 5891 5891 5891 5890 5891
5912 5912 5913 5912 5911 5909 5908 5906 5905 5903 5902 5900 5899 5898 5897 5896 5895 5894 5893 5893 5892 5892 5892 5891 5891 5891 5891 5890 5890 5890 5890 5890 5889 5889 5889 5889 5889 5890 5890 5890 5891 5891 5892 5891 5891 5890 5890 5889 5889
5914 5914 5913 5913 5912 5911 5909 5907 5906 5905 5904 5902 5901 5899 5898 5897 5896 5895 5895 5894 5893 5893 5893 5893 5892 5892 5891 5892 5892 5892 5891 5891 5890 5890 5890 5889 5889 5889 5890 5890 5891 5891 5891 5891 5891 5890 5889 5888 5889
5915 5916 5915 5915 5914 5913 5911 5909 5908 5906 5905 5904 5902 5901 5899 5898 5897 5896 5896 5895 5895 5894 5894 5894 5893 5893 5893 5893 5893 5893 5892 5892 5891 5890 5890 5889 5889 5889 5890 5890 5891 5891 5891 5891 5890 5889 5888 5888 5889
5917 5919 5917 5916 5915 5914 5912 5910 5909 5907 5906 5905 5903 5902 5901 5899 5898 5897 5897 5897 5896 5896 5895 5895 5895 5894 5894 5894 5894 5894 5893 5892 5892 5891 5891 5890 5889 5889 5890 5890 5890 5890 5891 5891 5890 5890 5889 5888 5889
5919 5919 5919 5918 5916 5915 5914 5912 5911 5909 5908 5907 5905 5903 5902 5901 5899 5899 5898 5898 5897 5897 5897 5896 5896 5896 5895 5895 5895 5895 5894 5894 5893 5892 5892 5891 5890 5890 5890 5890 5890 5890 5890 5890 5890 5890 5889 5888 5888
5920 5920 5919 5918 5917 5916 5915 5914 5913 5911 5910 5908 5907 5905 5903 5902 5901 5900 5899 5899 5898 5898 5898 5897 5897 5897 5896 5896 5896 5895 5895 5894 5894 5893 5893 5892 5892 5891 5891 5891 5891 5890 5890 5890 5890 5889 5889 5888 5887
5921 5921 5921 5920 5919 5918 5917 5916 5914 5913 5911 5910 5908 5907 5905 5904 5902 5901 5900 5900 5899 5899 5899 5898 5898 5898 5897 5897 5897 5896 5896 5895 5895 5894 5894 5893 5893 5892 5892 5891 5891 5891 5890 5890 5889 5889 5888 5888 5887
5922 5922 5922 5921 5920 5919 5918 5917 5916 5914 5913 5911 5909 5908 5907 5905 5904 5903 5901 5901 5900 5900 5900 5899 5899 5898 5898 5898 5897 5897 5896 5896 5896 5895 5894 5894 5893 5893 5892 5892 5891 5891 5890 5889 5889 5888 5888 5888 5887
5923 5923 5923 5922 5922 5920 5920 5919 5918 5916 5914 5913 5911 5910 5908 5907 5906 5905 5904 5903 5902 5901 5901 5900 5900 5899 5899 5899 5898 5898 5897 5897 5896 5896 5896 5895 5894 5894 5893 5892 5892 5891 5890 5889 5889 5888 5888 5888 5887
5924 5924 5924 5923 5922 5922 5921 5920 5919 5918 5916 5914 5913 5912 5910 5909 5908 5906 5906 5905 5904 5903 5902 5902 5901 5900 5900 5900 5899 5899 5898 5898 5897 5896 5896 5895 5895 5894 5893 5893 5892 5891 5890 5889 5889 5888 5888 5887 5887
5924 5925 5926 5925 5923 5923 5924 5922 5921 5919 5918 5916 5915 5914 5912 5911 5909 5908 5907 5906 5905 5904 5904 5903 5902 5901 5901 5900 5900 5899 5899 5898 5897 5897 5896 5895 5895 5894 5893 5892 5892 5891 5890 5889 5888 5888 5887 5887 5886
5925 5926 5926 5926 5924 5923 5923 5923 5921 5920 5919 5917 5916 5915 5914 5912 5911 5910 5909 5908 5907 5906 5905 5904 5903 5902 5901 5900 5900 5900 5899 5899 5898 5897 5896 5896 5895 5894 5893 5893 5891 5890 5890 5889 5888 5887 5886 5886 5885
5926 5926 5926 5925 5924 5923 5923 5923 5922 5920 5919 5918 5917 5916 5915 5913 5912 5911 5910 5909 5908 5907 5906 5905 5904 5903 5901 5901 5900 5900 5899 5899 5898 5897 5896 5896 5895 5894 5893 5892 5891 5890 5889 5888 5887 5886 5885 5884 5884
5923 5924 5925 5924 5923 5923 5923 5922 5922 5920 5919 5918 5917 5916 5915 5914 5913 5912 5911 5910 5909 5907 5906 5905 5904 5903 5902 5901 5900 5900 5899 5899 5898 5897 5896 5895 5894 5893 5892 5891 5890 5890 5889 5887 5886 5885 5884 5883 5882
5921 5923 5923 5923 5922 5922 5922 5922 5921 5920 5919 5918 5918 5917 5916 5915 5914 5913 5912 5910 5909 5908 5907 5906 5905 5904 5903 5902 5901 5900 5899 5898 5897 5897 5896 5894 5893 5893 5892 5891 5890 5888 5887 5887 5886 5884 5883 5882 5881
5920 5921 5921 5921 5921 5921 5921 5922 5921 5920 5919 5918 5917 5917 5916 5915 5914 5913 5912 5911 5909 5908 5907 5906 5905 5904 5903 5902 5901 5900 5899 5898 5897 5896 5895 5893 5892 5892 5891 5890 5889 5887 5886 5886 5884 5883 5882 5881 5879
5918 5918 5919 5919 5920 5920 5921 5921 5920 5919 5918 5918 5917 5916 5915 5915 5914 5913 5912 5911 5909 5908 5907 5905 5904 5904 5903 5902 5901 5900 5898 5897 5896 5895 5894 5893 5892 5891 5890 5889 5888 5887 5885 5884 5883 5881 5880 5879 5877
5915 5916 5916 5917 5917 5918 5919 5919 5920 5917 5917 5916 5916 5915 5914 5914 5913 5912 5911 5910 5909 5907 5906 5905 5904 5903 5902 5901 5900 5899 5898 5897 5896 5895 5893 5892 5891 5890 5889 5888 5886 5885 5884 5882 5881 5879 5878 5876 5875
5912 5913 5914 5915 5916 5917 5917 5917 5918 5916 5915 5915 5914 5914 5913 5912 5912 5911 5910 5909 5908 5907 5906 5904 5903 5902 5901 5900 5899 5898 5897 5896 5895 5894 5893 5891 5890 5888 5887 5886 5885 5883 5882 5880 5879 5877 5875 5874 5872
5910 5912 5914 5914 5915 5916 5914 5914 5915 5913 5912 5912 5912 5912 5911 5911 5910 5909 5908 5908 5907 5905 5904 5903 5902 5901 5900 5899 5898 5897 5896 5894 5893 5892 5891 5889 5888 5887 5885 5884 5883 5881 5880 5878 5876 5874 5873 5871 5869
5907 5910 5912 5913 5914 5914 5911 5910 5911 5910 5909 5909 5909 5909 5909 5909 5908 5907 5907 5906 5905 5904 5903 5902 5901 5900 5898 5897 5896 5895 5894 5892 5891 5890 5889 5887 5886 5884 5883 5882 5880 5879 5877 5875 5873 5872 5870 5868 5866
5903 5905 5907 5909 5909 5910 5909 5907 5907 5906 5906 5906 5906 5906 5906 5906 5905 5905 5904 5904 5903 5902 5901 5900 5899 5898 5896 5895 5894 5892 5891 5890 5888 5887 5886 5885 5883 5882 5880 5879 5878 5876 5874 5872 5870 5868 5867 5865 5863
5900 5901 5903 5904 5905 5906 5906 5905 5904 5903 5903 5903 5903 5903 5903 5903 5903 5902 5902 5901 5900 5899 5898 5897 5896 5895 5894 5892 5891 5890 5888 5887 5886 5885 5883 5882 5880 5879 5878 5876 5875 5873 5871 5869 5867 5865 5863 5861 5860
5896 5897 5898 5899 5901 5902 5903 5905 5900 5899 5899 5899 5899 5900 5900 5899 5899 5899 5898 5898 5897 5896 5895 5894 5893 5892 5891 5889 5888 5886 5884 5883 5882 5882 5880 5879 5877 5876 5874 5873 5871 5869 5867 5865 5863 5861 5859 5857 5856
5890 5892 5894 5896 5896 5896 5898 5901 5896 5895 5895 5895 5895 5896 5896 5896 5896 5895 5895 5894 5894 5893 5892 5891 5890 5889 5887 5886 5884 5883 5881 5880 5879 5878 5876 5875 5873 5872 5870 5868 5867 5865 5862 5860 5858 5856 5854 5853 5851